Location: *
(37.8958°N, 113.6614°W)
Time: 01:38:01
(UTC+00:00)

Daily predictions for brighter satellites

Satellite Brightness Start Highest point End
(mag) Time Altitude Azimuth Time Altitude Azimuth Time Altitude Azimuth
Cosmos 1869 3.5 03:15:13 10° N 03:19:05 54° E 03:22:56 10° SSE
Cosmos 2322 Rocket 2.3 03:13:42 10° SSW 03:19:24 86° ESE 03:25:08 10° NNE
Cosmos 1340 Rocket 2.9 03:18:43 10° N 03:22:46 61° E 03:26:47 10° SSE
CZ-2C R/B 4.3 03:19:41 10° ESE 03:23:59 26° ENE 03:28:06 10° NNE
Cosmos 1892 3.4 03:23:06 10° SSE 03:26:35 34° E 03:30:03 10° NNE
ADEOS Rocket 3.4 03:22:30 10° NNE 03:27:30 35° E 03:32:31 10° SSE
SL-08 RB Rocket 4.4 03:23:46 10° SE 03:27:49 35° ENE 03:31:53 10° N
SL-16 R/B 2.6 03:22:51 10° SSW 03:28:30 70° WNW 03:34:10 10° NNE
H-2A R/B 2.3 03:26:01 10° SSE 03:31:20 60° ENE 03:36:35 10° N
Cosmos 44 Rocket 4.1 03:28:17 10° SW 03:33:22 61° WNW 03:38:23 10° NNE
Cosmos 1844 Rocket 4.2 03:30:56 10° N 03:35:13 21° NE 03:39:27 10° ESE
USA 229 DEB 3.7 03:29:51 10° S 03:36:08 52° ESE 03:42:40 10° NE
USA 229 3.7 03:29:58 10° S 03:36:15 52° ESE 03:42:46 10° NE
Cosmos 2333 Rocket 3.7 03:34:49 10° SE 03:38:15 16° E 03:41:41 10° ENE
BREEZE-M DEB (TANK) 3.7 03:33:55 10° SSW 03:38:23 28° SE 03:42:02 10° ENE
NOSS 3-1 (A) 4.2 03:35:37 10° SSE 03:39:55 24° ESE 03:44:34 10° ENE
Cosmos 2263 Rocket 2.4 03:36:29 10° NNW 03:42:11 74° WSW 03:47:50 10° SSE
Cosmos 1743 Rocket 4.5 03:40:01 10° SSE 03:43:46 29° E 03:47:32 10° NNE
GPS 2-05 Rocket1 4.2 03:43:05 10° SSW 03:44:57 16° SSE 03:45:35 15° SE
Cosmos 2322 4.2 03:40:15 10° S 03:45:25 39° ESE 03:50:38 10° NE
In-Cosmos 22 Rocket 4.1 03:40:21 10° S 03:45:46 84° E 03:51:23 10° N
Cosmos 1992 Rocket 4.0 03:45:17 10° NNW 03:50:34 89° ENE 03:55:48 10° SSE
MTI 4.2 03:50:16 10° NNE 03:53:18 40° E 03:56:05 11° S
Cosmos 1515 Rocket 4.1 03:51:55 10° N 03:56:00 38° ENE 03:58:54 17° SE
Cosmos 1766 Rocket 4.1 03:51:56 10° SSW 03:56:12 60° W 04:00:29 10° N
Cosmos 1242 Rocket 3.9 03:53:45 10° SSW 03:57:14 43° WNW 04:00:47 10° N
Resurs 1-3 3.7 03:53:24 10° S 03:57:47 80° WSW 04:02:11 10° NNW
Cosmos 1408 Rocket 3.5 03:54:37 10° S 03:58:54 85° W 04:03:14 10° N
Cosmos 921 Rocket 2.9 03:56:14 10° NNW 04:00:32 85° ENE 04:04:17 14° SSE
Spot 2 Rocket 3.8 03:57:48 15° SE 04:01:50 50° ENE 04:06:47 10° N
MetOp-A 4.1 03:58:46 11° SSE 04:04:00 78° ENE 04:09:22 10° N
USA 215 3.6 03:59:20 10° NE 04:05:51 69° NW 04:12:21 10° WSW
Cosmos 2237 4.3 04:06:25 10° SSW 04:12:06 85° WNW 04:17:50 10° NNE
DMSP B5D2-2 4.0 04:07:16 10° NNE 04:12:29 75° ESE 04:17:40 10° S
Cosmos 1606 4.1 04:12:56 10° NNE 04:15:53 21° ENE 04:16:34 20° E
Cosmos 1151 Rocket 3.0 04:12:08 10° N 04:16:31 85° W 04:20:01 16° S
Nadezhda 4 Rocket 4.0 04:11:07 10° N 04:17:22 66° E 04:22:05 18° SSE
Cosmos 1825 2.3 04:16:37 24° SSE 04:18:38 51° E 04:22:18 10° NNE
SL-4 R/B 3.9 04:15:28 10° W 04:19:59 39° NNW 04:24:32 10° NE
USA 245 3.9 04:25:18 19° NE 04:25:18 19° NE 04:26:31 10° NNE
Cosmos 2034 Rocket 4.2 04:23:12 10° SSW 04:29:24 73° W 04:35:44 10° N
Cosmos 1844 4.2 04:24:02 10° N 04:29:26 44° ENE 04:32:07 26° ESE
Cosmos 2360 Rocket 3.1 04:24:31 10° SW 04:30:00 51° WNW 04:35:30 10° NNE
COSMOS 2428 2.9 04:24:39 10° S 04:30:10 52° ESE 04:35:43 10° NNE
Cosmos 2237 Rocket 3.6 04:36:21 20° E 04:36:21 20° E 04:39:50 10° NE
NOSS 2-3 (C) 4.2 04:35:48 34° ESE 04:36:03 34° ESE 04:40:20 10° NE
USA 267 4.0 04:33:00 17° E 04:37:42 44° NE 04:43:49 10° NW
IGS 5A 4.3 04:37:59 31° E 04:38:49 34° ENE 04:42:35 10° N
Sich 1 3.9 04:38:59 29° E 04:39:05 29° E 04:42:46 10° NNE
Cosmos 1092 Rocket 4.0 04:34:03 10° N 04:40:13 64° E 04:43:27 29° SSE
CZ-2C R/B 2.5 04:35:14 10° NNE 04:40:25 71° ESE 04:43:48 22° S
Cosmos 1818 4.2 04:35:31 10° NNW 04:40:44 43° NE 04:42:59 29° ESE
Cosmos 676 Rocket 3.9 04:38:16 14° S 04:42:45 74° ESE 04:48:00 10° NNE
Cosmos 2228 Rocket 3.1 04:39:40 10° N 04:44:16 83° W 04:46:26 31° S
Meteor 2-11 Rocket 4.4 04:40:26 15° S 04:45:39 88° E 04:51:46 10° N
Cosmos 292 Rocket 3.8 04:41:13 10° NNW 04:46:01 69° ENE 04:47:39 40° SE
NOSS 3-1 (C) 3.8 04:41:22 10° SW 04:46:45 60° NW 04:52:54 10° NNE
Cosmos 1140 Rocket 3.5 04:43:19 10° SSW 04:48:28 81° WNW 04:53:42 10° NNE
Landsat 7 4.0 04:47:19 39° SE 04:48:44 54° ENE 04:53:23 10° N
SPOT 5 3.5 04:47:42 34° ESE 04:49:04 41° ENE 04:53:34 10° N
Resurs 01 Rocket 3.5 04:47:03 10° SSW 04:50:46 26° W 04:54:29 10° NW
EO 1 Del DPAF 3.2 04:48:20 10° N 04:52:08 80° WNW 04:53:34 37° SSW
Cosmos 1500 Rocket 4.4 04:48:22 11° SSW 04:52:32 49° W 04:56:53 10° N
Cosmos 1954 Rocket 3.9 04:50:02 17° SSW 04:54:08 87° ESE 04:59:26 10° NNE
Cosmos 1356 Rocket 3.6 04:50:49 10° NNW 04:55:07 70° W 04:56:36 39° S
Cosmos 2219 Rocket 2.1 04:51:52 12° SSW 04:57:13 84° ESE 05:02:56 10° NNE
DELTA 2 R/B (1) 3.7 04:52:17 10° W 04:57:54 74° N 05:01:22 24° E
ERS-1 Rocket 2.9 04:57:32 44° SE 04:59:07 72° ENE 05:04:08 10° N
Cosmos 1408 4.4 04:56:12 10° SW 04:59:27 29° WNW 05:02:46 10° NNW
Cosmos 1634 Rocket 3.9 04:55:59 25° S 04:59:49 83° E 05:06:04 10° N
Cosmos 1867 3.5 04:58:42 21° SSW 05:02:19 69° ESE 05:07:47 10° NE
CZ-2C R/B 4.3 04:59:43 15° SSW 05:03:39 36° W 05:08:20 10° NNW
Cosmos 1850 Rocket 4.4 05:03:34 42° ESE 05:03:50 42° ESE 05:08:51 10° NNE
Cosmos 2026 Rocket 3.9 05:01:54 10° N 05:08:00 74° E 05:10:11 42° SSE
ATLAS CENTAUR R/B 3.2 05:10:53 10° N 05:14:37 23° NE 05:15:21 22° ENE
SL-8 R/B 3.5 05:11:25 10° WNW 05:16:12 79° SW 05:16:42 69° SSE
Cosmos 2142 Rocket 4.4 05:13:27 34° S 05:16:26 87° E 05:22:52 10° N
Cosmos 2278 Rocket 3.1 05:12:00 10° N 05:17:11 35° ENE 05:18:22 32° E
Terra 2.0 05:17:39 52° E 05:18:02 54° ENE 05:22:40 10° N
Cosmos 1844 Rocket 3.1 05:13:54 10° NNW 05:19:26 54° WSW 05:21:19 37° SSW
Lacrosse 5 4.2 05:17:06 10° NNW 05:20:14 16° NNE 05:23:20 10° ENE
Cosmos 2333 Rocket 2.6 05:16:16 10° SW 05:21:55 62° WNW 05:27:34 10° NNE
Cosmos 1707 Rocket 3.5 05:25:02 10° N 05:29:25 81° ENE 05:29:25 81° ENE
NOSS 3-1 (A) 4.3 05:25:01 10° WSW 05:30:17 46° NW 05:36:18 10° NNE
Mayak 0.9 05:27:36 10° NE 05:28:57 16° ENE 05:28:57 16° ENE
Thor Agena Rocket 4.2 05:28:56 10° N 05:33:49 51° WNW 05:36:19 27° SW
Cosmos 1655 Rocket 4.0 05:27:45 10° N 05:33:55 60° E 05:34:55 54° ESE
Cosmos 2180 Rocket 4.3 05:33:18 56° SSE 05:34:34 74° E 05:40:41 10° N
ASTEX 1 3.3 05:30:04 10° N 05:35:04 76° E 05:35:14 75° ESE
NOSS 2-3 (E) 4.3 05:38:56 28° WSW 05:41:01 53° NW 05:45:54 10° NNE
MOS 1 Rocket 3.2 05:36:34 10° NNE 05:41:14 90° WSW 05:41:17 88° SSW
NOSS 2-3 (D) 4.3 05:42:22 33° WSW 05:44:04 53° NW 05:48:55 10° NNE
Meteor 1-27 Rocket 4.4 05:38:31 10° N 05:44:07 42° ENE 05:44:25 42° E
Lacrosse 5 rocket 3.3 05:45:18 10° NNW 05:49:05 24° NE 05:49:43 24° NE
COSMOS 2455 2.8 05:57:52 65° E 05:57:52 65° E 06:03:31 10° NNE
Cosmos 2285 Rocket 4.5 05:58:59 44° E 05:58:59 44° E 06:04:17 10° NNE
Cosmos 2266 Rocket 4.0 05:53:19 10° N 05:59:35 60° E 05:59:56 59° E
Cosmos 1782 4.3 05:57:59 10° NNW 06:01:02 33° WNW 06:01:02 33° WNW
Cosmos 724 4.5 05:56:30 10° NNW 06:02:27 59° ENE 06:02:52 58° ENE
Cosmos 1633 Rocket 4.0 06:05:17 42° WNW 06:05:17 42° WNW 06:09:11 10° N
SL-16 R/B 3.1 06:07:06 36° ENE 06:07:06 36° ENE 06:10:53 10° NE
NOSS 0 Rocket 4.5 06:03:03 28° SW 06:06:09 55° WNW 06:12:12 10° NNE
IRAS Rocket 4.1 06:09:27 88° SW 06:09:29 88° WSW 06:15:09 10° NNW
Cosmos 1400 Rocket 4.4 06:07:29 10° N 06:09:53 31° NNE 06:09:53 31° NNE
Cosmos 1980 4.3 06:11:38 41° WSW 06:13:13 53° WNW 06:18:48 10° NNE
Cosmos 2208 Rocket 4.3 06:11:59 10° NNW 06:16:53 63° NE 06:16:53 63° NE
Cosmos 2237 Rocket 2.8 06:18:07 41° WSW 06:19:28 50° WNW 06:24:57 10° NNE
USA 267 3.4 06:20:21 55° SW 06:20:33 55° SW 06:26:59 10° NW
ATLAS 2AS CENTAUR R/B 4.2 06:23:20 25° E 06:23:20 25° E 06:28:11 10° NE
Cosmos 2242 Rocket 4.5 06:18:08 10° N 06:21:28 48° N 06:21:28 48° N
Cosmos 1570 Rocket 4.2 06:17:56 10° NNW 06:22:30 68° NNW 06:22:30 68° NNW
ALOS 2 4.4 06:26:32 24° NE 06:26:32 24° NE 06:29:00 10° N
Cosmos 540 Rocket 4.4 06:26:42 10° N 06:30:46 40° NE 06:30:46 40° NE
Helios 1A 4.5 06:35:40 35° NNW 06:35:40 35° NNW 06:38:07 10° NNW
Cosmos 1943 Rocket 4.2 06:39:23 10° NNE 06:42:49 16° NE 06:43:57 16° ENE
GP-B 4.4 06:39:08 10° N 06:41:59 39° N 06:41:59 39° N
ATLAS 5 CENTAUR R/B 3.7 06:38:49 10° NNW 06:44:01 31° NE 06:45:31 28° ENE
SeaSat 1 3.9 06:41:31 10° NE 06:43:59 28° NE 06:43:59 28° NE
ATLAS CENTAUR R/B 3.6 06:49:31 10° NW 06:51:32 23° WNW 06:51:32 23° WNW
Terra 4.2 06:56:32 14° W 06:56:32 14° W 06:58:33 10° WNW
Lacrosse 4 Rocket 3.2 06:59:52 32° NNW 06:59:52 32° NNW 07:02:54 10° N
Cosmos 2297 4.0 06:54:38 10° NNW 06:59:22 63° N 06:59:22 63° N
Cosmos 2278 Rocket 3.6 06:56:15 10° NW 07:00:12 29° W 07:00:12 29° W
Helios 1B rocket 4.3 06:58:56 10° N 07:00:59 28° N 07:00:59 28° N
Lacrosse 5 2.8 06:59:01 10° NW 07:02:38 45° NNW 07:02:38 45° NNW
Cosmos 841 Rocket 4.4 07:00:22 10° NNW 07:04:00 45° NW 07:04:00 45° NW
Mayak 0.8 07:02:57 10° NNW 07:05:32 24° NW 07:05:32 24° NW
Cosmos 2369 Rocket 3.4 07:18:56 10° N 07:24:03 33° ENE 07:24:12 33° ENE
Lacrosse 5 rocket 3.9 07:24:09 10° NW 07:25:21 18° NW 07:25:21 18° NW
Cosmos 1603 4.3 07:38:09 50° NE 07:38:09 50° NE 07:42:20 10° NNE
NOSS 3-2 (A) 4.4 07:38:59 10° NNW 07:46:34 60° NE 07:48:56 45° ESE
BREEZE M DEB (TANK) 3.8 07:48:27 48° NNE 07:48:27 48° NNE 07:56:00 10° NE
SL-16 R/B 3.8 07:48:55 24° WNW 07:49:48 25° WNW 07:54:26 10° N
ATLAS 3B R/B 4.0 07:44:52 10° NNW 07:50:47 32° NE 07:54:21 20° E
BREEZE-M DEB (TANK) 4.3 07:49:37 10° NW 07:53:55 64° NE 08:12:16 10° ESE
S3M 4.4 08:03:27 55° WNW 08:03:27 55° WNW 08:09:22 10° N
Cosmos 1943 3.7 08:04:57 58° NNE 08:04:57 58° NNE 08:09:26 10° NNE
ATLAS 2AS CENTAUR R/B 3.2 08:10:44 58° WSW 08:12:09 67° NW 08:20:14 10° NNE
Resurs 1-4 Rocket 4.1 08:09:15 10° NE 08:12:17 18° E 08:12:17 18° E
Meteor 2-4 Rocket 4.1 08:08:28 10° N 08:13:01 58° NNW 08:13:01 58° NNW
USA 238 DEB 3.7 08:07:27 10° NW 08:14:33 81° W 08:14:33 81° W
USA 238 3.7 08:07:33 10° NW 08:14:41 81° WSW 08:14:41 81° WSW
Cosmos 1709 Rocket 4.0 08:12:47 10° N 08:18:27 75° NNE 08:18:27 75° NNE
SeaSat 1 4.3 08:19:46 10° N 08:23:29 22° NW 08:23:46 22° WNW
Cosmos 1943 Rocket 2.9 08:21:36 10° NNW 08:25:27 45° NW 08:25:27 45° NW
ATLAS 5 CENTAUR R/B 3.3 08:23:03 10° NW 08:27:01 39° WNW 08:27:01 39° WNW
SL-16 R/B 3.7 08:33:48 28° ESE 08:35:57 36° ENE 08:41:29 10° N
BREEZE-M DEB (TANK) 4.2 08:35:57 10° WNW 08:42:45 43° N 08:42:54 43° NNE
Cosmos 1975 Rocket 4.4 08:45:20 10° N 08:48:08 38° NNE 08:48:08 38° NNE
CZ-2D R/B 3.0 08:45:35 10° NNE 08:50:37 41° E 08:50:37 41° E
Cosmos 2315 Rocket 4.4 08:52:45 49° WNW 08:52:45 49° WNW 08:58:48 10° N
Cosmos 1346 Rocket 4.5 08:59:31 32° NNE 08:59:31 32° NNE 09:01:52 10° NNE
Atlas Centaur 2 4.0 09:02:34 27° SE 09:02:34 27° SE 09:06:18 10° ESE
NOSS 3-2 (C) 4.0 08:53:18 10° NW 09:01:04 76° WSW 09:02:42 60° S
SJ 16-02 3.9 09:02:29 12° E 09:02:32 12° E 09:04:22 10° ENE
Cosmos 1538 Rocket 4.2 09:01:28 10° NNW 09:05:51 63° NNW 09:05:51 63° NNW
Cosmos 2369 Rocket 3.6 09:02:59 10° NW 09:05:57 25° WNW 09:05:57 25° WNW
Meteor 2-15 4.4 09:10:00 64° SE 09:10:34 68° E 09:16:35 10° NNE
NOSS 3-4 (A) 4.3 09:16:10 34° WNW 09:17:26 38° NW 09:23:18 10° NNE
NOSS 3-4 (C) 4.3 09:16:17 34° WNW 09:17:32 38° NW 09:23:24 10° NNE
SL-4 R/B 3.5 09:18:29 10° NW 09:22:52 39° NNE 09:26:57 10° E
Cosmos 2327 Rocket 4.4 09:21:47 10° N 09:28:09 87° E 09:29:27 60° SSE
Cosmos 1898 Rocket 4.2 09:27:38 44° ESE 09:28:09 45° ESE 09:33:14 10° NNE
Okean 2 Rocket 3.7 09:30:25 50° NNW 09:30:25 50° NNW 09:33:54 10° N
Cosmos 2184 Rocket 3.9 09:23:18 10° NNW 09:29:33 70° W 09:30:06 66° SW
MOZ.5/SAFIR/RUBIN 5/SL-8 3.8 09:31:14 73° NNW 09:31:14 73° NNW 09:35:31 10° NNW
AQUA 3.8 09:27:03 10° NNE 09:31:39 80° ENE 09:31:39 80° ENE
H-2A R/B 2.8 09:34:41 48° NW 09:34:41 48° NW 09:38:06 10° NNW
CENTAUR R/B 3.1 09:25:31 10° NW 09:33:44 71° WSW 09:37:38 36° S
COSMOS 2406 3.9 09:35:02 40° SE 09:36:05 44° ESE 09:41:26 10° NE
Cosmos 1536 Rocket 3.9 09:33:26 10° N 09:37:53 62° E 09:37:58 62° E
ATLAS 3B R/B 2.8 09:35:15 10° NW 09:41:31 50° WSW 09:41:31 50° WSW
Cosmos 1743 4.1 09:43:45 31° NNW 09:43:45 31° NNW 09:46:08 10° N
Cosmos 1656 Rocket 4.4 09:38:22 10° NW 09:42:39 38° WNW 09:42:39 38° WNW
IRS-1D 3.3 09:42:26 10° NNE 09:47:25 86° ESE 09:47:53 73° S
SL-08 R/B 3.6 09:47:34 46° SE 09:48:45 62° ENE 09:53:28 10° N
Cosmos 1975 3.7 09:50:17 42° NW 09:50:17 42° NW 09:53:23 10° N
NPP 3.8 09:44:22 10° N 09:49:39 56° WNW 09:50:10 54° W
CZ-4B R/B 3.5 09:49:20 20° E 09:49:48 21° ENE 09:52:12 10° NNE
Cosmos 1300 Rocket 3.8 09:50:58 59° NW 09:50:58 59° NW 09:54:58 10° N
Cosmos 1833 Rocket 4.4 09:50:01 17° SE 09:52:43 24° E 09:57:07 10° NE
Resurs 1-4 Rocket 2.4 09:47:47 10° N 09:52:53 51° WNW 09:53:22 49° W
BREEZE-M DEB (TANK) 4.5 09:49:45 23° WNW 09:52:55 59° SW 10:10:05 10° SE
ADEOS II 2.8 09:47:53 10° NNE 09:52:58 47° E 09:54:43 34° SSE
RESURS DK-1 3.8 09:54:13 28° NW 09:54:13 28° NW 09:57:30 10° N
Landsat 5 3.9 09:53:17 51° SE 09:54:08 64° ENE 09:58:25 10° N
Cosmos 1295 Rocket 4.5 09:51:52 10° N 09:58:13 86° E 10:01:01 36° S
Cosmos 1544 4.0 09:58:55 43° E 09:59:02 43° E 10:02:35 10° NNE
Iridium 51 4.4 09:59:47 73° SE 10:00:07 79° E 10:04:15 10° N
Cosmos 2151 Rocket 4.3 10:05:53 41° WNW 10:05:53 41° WNW 10:09:57 10° N
Cosmos 1025 Rocket 2.9 10:04:08 10° N 10:08:32 75° W 10:08:48 72° SW
IRS-P3 4.2 10:04:29 10° N 10:09:45 60° WNW 10:10:55 48° WSW
Cosmos 1842 3.3 10:08:12 10° NNW 10:11:40 62° NW 10:11:40 62° NW
Cosmos 990 Rocket 3.9 10:11:15 53° SW 10:12:29 77° WNW 10:17:45 10° NNE
Cosmos 858 Rocket 4.4 10:11:35 51° SSW 10:12:58 90° WNW 10:18:16 10° NNE
ERS-1 4.3 10:10:42 10° NNE 10:15:44 83° WNW 10:17:09 48° SSW
Cosmos 2112 Rocket 3.9 10:11:35 10° NNW 10:16:54 72° WSW 10:18:54 38° S
Okean 1 Rocket 3.0 10:17:13 60° SW 10:17:56 75° W 10:22:26 10° N
SL-16 R/B 3.2 10:18:54 33° WSW 10:19:29 34° W 10:25:03 10° NNW
Cosmos 405 3.1 10:16:52 10° N 10:20:24 71° E 10:20:52 60° SE
Cosmos 158 Rocket 4.3 10:20:40 10° NNW 10:25:43 65° ENE 10:30:52 10° SSE
CZ-2D R/B 3.5 10:26:11 10° NNW 10:30:31 25° WNW 10:31:57 22° W
Cosmos 2082 Rocket 3.4 10:27:39 16° SSE 10:31:33 36° ESE 10:36:39 10° NE
Cosmos 2366 rocket 4.1 10:27:29 10° N 10:33:39 73° E 10:39:47 10° SSE
ARIANE 5 R/B 2.7 10:30:12 10° N 10:35:15 58° WNW 10:37:14 35° SW
Cosmos 1689 Rocket 2.5 10:34:47 43° SE 10:35:30 60° ENE 10:38:26 10° N
Cosmos 2298 Rocket 4.1 10:36:28 28° S 10:39:19 74° ESE 10:44:37 10° NNE
CZ-2C R/B 2.7 10:35:43 10° NNE 10:39:28 79° ESE 10:40:52 38° S
SJ 16-02 1.7 10:39:30 39° WSW 10:40:36 49° WNW 10:44:52 10° N
Okean 1-7 Rocket 4.2 10:36:58 10° N 10:41:26 56° E 10:45:49 10° SSE
Meteor 2-17 Rocket 4.4 10:35:27 10° N 10:41:37 83° W 10:47:07 13° S
PSLV R/B 3.6 10:41:49 37° NW 10:42:33 50° N 10:45:18 10° E
Cosmos 2341 Rocket 4.3 10:38:20 10° NNW 10:44:27 49° W 10:47:56 25° SSW
Cosmos 1441 Rocket 3.6 10:44:10 26° S 10:46:11 62° E 10:50:02 10° NNE
Cosmos 2150 Rocket 4.0 10:44:46 25° S 10:47:50 79° ESE 10:53:00 10° NNE
Atlas Centaur 2 3.0 10:45:09 26° SW 10:49:00 45° S 10:55:06 10° ESE
Cosmos 2218 Rocket 3.9 10:44:43 10° N 10:50:56 76° W 10:57:09 10° S
USA 215 4.2 10:46:31 10° ESE 10:52:45 50° NE 10:59:00 10° NW
ADEOS 4.1 10:50:39 10° NNE 10:55:47 56° E 11:00:52 10° S
Cosmos 1455 Rocket 3.2 10:52:58 18° S 10:56:12 71° E 11:00:32 10° NNE
GPS 2-04 Rocket1 2.8 10:56:18 36° SSW 10:57:06 43° SSE 11:00:26 10° E
Spot 2 4.3 10:56:01 10° N 11:00:40 81° WNW 11:04:10 19° SSW
Milstar 3 3.4 10:58:05 22° SW 11:01:42 39° S 11:09:05 10° ESE
Milstar 3 Cent rocket 3.0 11:00:28 23° SSW 11:02:13 29° S 11:07:18 10° ESE
Cosmos 1937 Rocket 4.4 10:59:58 23° WSW 11:02:21 33° WNW 11:07:06 10° N
SL-4 R/B 2.7 10:58:27 10° WNW 11:02:32 35° SW 11:06:20 10° SSE
H-2A R/B 3.2 11:02:16 10° NNE 11:06:43 58° E 11:11:09 10° S
Cosmos 372 Rocket 3.9 11:04:19 19° SSW 11:08:00 85° WNW 11:13:09 10° NNE
Cosmos 1805 4.3 11:06:12 10° SSE 11:09:55 45° E 11:13:39 10° NNE
Cosmos 1892 Rocket 3.5 11:08:29 10° NNW 11:12:50 69° W 11:17:11 10° S
Cosmos 2084 4.1 11:15:48 10° NW 11:19:26 30° WSW 11:23:00 10° S
TSX-5 3.5 11:18:32 10° NW 11:21:35 48° WSW 11:24:56 10° S
CZ-4B R/B 3.3 11:22:38 13° W 11:22:38 13° W 11:23:51 10° WNW
Cosmos 1674 4.0 11:18:51 10° N 11:22:32 43° E 11:26:12 10° SSE
Cosmos 1707 3.6 11:19:47 10° NNW 11:23:10 30° W 11:25:23 17° SW
BREEZE-M DEB (TANK) 1.7 11:23:04 22° SSW 11:24:12 48° SE 11:26:40 10° ENE
In-Cosmos 22 4.1 11:18:59 10° NNW 11:24:37 75° W 11:30:04 10° S
GEOS 3 Rocket 3.7 11:20:03 10° NNE 11:25:09 65° NW 11:29:29 14° SW
Meteor 1-28 Rocket 3.2 11:23:31 10° S 11:27:14 57° W 11:30:58 10° NNW
IDEFIX/ARIANE 42P 2.8 11:22:03 10° NNE 11:27:15 73° ESE 11:32:24 10° S
Nadezhda 3 Rocket 4.0 11:21:55 10° S 11:28:17 82° W 11:34:37 10° N
ADEOS II 3.6 11:28:30 10° NNW 11:32:17 20° WNW 11:35:39 12° WSW
Cosmos 1125 Rocket 3.5 11:27:10 10° SSW 11:32:21 84° WNW 11:37:35 10° NNE
Meteor 2-5 Rocket 3.7 11:26:50 10° N 11:32:27 89° E 11:37:59 10° S
Cosmos 1833 Rocket 3.2 11:31:43 14° SW 11:36:19 43° WNW 11:41:42 10° N
Cosmos 1697 Rocket 2.7 11:31:49 10° NNW 11:37:30 82° WSW 11:43:09 10° SSE
Meteor 1-24 Rocket 3.8 11:38:06 10° N 11:43:34 78° E 11:48:52 10° SSE
CZ-4B R/B 3.9 11:41:32 10° NNE 11:44:57 39° E 11:48:21 10° S
BREEZE-M DEB (TANK) 3.1 11:38:27 10° NW 11:46:02 85° NNE 11:48:48 10° SE
Cosmos 1980 Rocket 2.7 11:40:47 10° NNW 11:46:22 64° ENE 11:51:55 10° SSE
Cosmos 44 3.3 11:43:15 10° NW 11:47:30 43° WSW 11:51:34 10° S
Meteosat 1 Rocket2 4.5 11:42:16 10° WSW 11:47:49 30° S 11:51:53 10° SE
Cosmos 1656 4.3 11:44:33 10° NW 11:49:43 36° WSW 11:54:50 10° S
